Location: Hradec Kralove
(50.2170°N, 15.8330°E)
Time: 13:34:06
(UTC+02:00)

Explorer 7 - Pass Details

Date: 05 February 2023
Orbit: 478 x 657 km, 50.3° (Epoch: 26 March)

Event Time Altitude Azimuth Distance (km) Brightness Sun altitude
Rises 14:04:00 0° 272° (W) 2,738 10.8 19.3°
Reaches altitude 10° 14:06:12 10° 272° (W) 1,873 10.0 19.2°
Maximum altitude 14:10:30 88° 1° (N) 602 7.3 18.8°
Drops below altitude 10° 14:15:04 10° 93° (E) 1,986 9.4 18.4°
Sets 14:17:27 0° 93° (E) 2,919 10.2 18.2°
